Vorticity
8 8 8 9 9 8 8 7 6 6 5 5 5 5 5 5 5 5 5 6 6 6 6 6 6 6 6 5 5 5 5 5 5 5 5 5 5 5 5 6 6 6 6 7 6 5 4 4 4 4 5 5 5 5 5 5 4 4 5 5 5 5 4 5 5 4 4 4 4 4 4 4 4 4 3 3 3 3 3 3 3 3 3 4 4 4 4 4 4 4 4 4 4 4 4 4 4 4 4 4 4 3 3
8 8 9 9 8 8 7 6 6 5 5 5 5 5 5 5 5 5 6 6 6 6 6 6 6 6 5 5 5 5 5 5 5 5 5 5 5 5 5 6 6 6 6 6 5 5 4 3 4 4 5 5 5 4 5 4 4 4 5 5 4 4 4 4 4 4 4 4 4 4 4 4 3 3 3 3 3 3 3 3 3 4 4 4 4 4 4 4 4 4 4 4 4 4 4 4 4 4 4 3 3 3 3
8 9 9 8 8 7 6 6 5 5 5 5 5 5 5 5 5 6 6 6 6 6 6 6 6 5 5 5 5 5 5 5 5 5 5 5 5 5 6 6 6 6 5 5 5 4 4 4 4 4 5 4 4 5 5 5 5 5 5 4 4 4 4 4 4 4 4 4 4 4 4 4 4 3 3 3 3 3 3 4 4 4 4 4 4 4 4 4 4 4 4 4 4 4 4 4 4 3 3 3 3 3 2
8 9 9 8 7 6 6 5 5 5 5 5 5 5 5 6 6 6 6 6 6 6 6 6 6 5 5 5 5 5 5 5 5 5 5 5 5 6 6 6 5 5 5 4 4 4 5 5 5 5 5 4 4 5 5 5 5 5 5 4 4 4 4 4 4 4 4 4 4 3 3 3 4 4 3 3 4 4 4 4 4 4 4 4 4 4 4 4 4 4 4 4 4 4 4 4 3 3 3 3 2 2 2
8 8 8 7 6 6 5 5 5 5 5 5 5 5 6 6 6 6 6 6 6 6 6 5 5 5 5 5 5 5 5 5 5 5 5 5 6 6 6 6 5 5 4 4 4 4 5 5 5 5 5 5 5 4 4 4 4 4 4 4 4 4 4 4 4 4 3 3 3 3 4 4 4 4 4 4 4 4 4 4 4 4 4 4 4 4 4 4 4 4 4 4 4 4 4 3 3 3 3 2 2 2 2
8 8 7 7 6 5 5 5 5 5 5 5 5 6 6 6 6 6 6 6 6 5 5 5 5 5 5 5 5 5 5 5 5 5 5 6 6 6 6 6 5 5 4 4 4 4 5 5 5 5 5 4 4 4 4 4 4 4 4 4 4 4 3 3 3 3 3 3 3 4 4 4 4 4 4 4 4 4 4 4 4 4 4 4 4 4 4 4 4 4 4 4 4 4 3 3 3 3 3 3 2 2 2
7 7 7 6 6 5 5 5 5 5 5 5 6 6 6 6 6 6 6 6 5 5 5 5 5 5 5 5 5 5 5 5 5 5 5 5 6 6 6 6 5 5 4 4 4 4 5 5 5 5 5 4 4 4 4 4 4 4 4 4 4 4 4 4 4 3 3 3 4 4 4 4 4 4 4 4 4 4 4 4 4 4 4 4 4 4 4 4 4 4 4 4 4 4 3 3 3 3 3 3 3 3 3
7 7 6 6 5 5 5 5 5 5 6 6 6 6 6 6 6 5 5 5 5 5 5 5 5 5 5 5 5 5 5 5 5 5 5 5 5 6 6 5 5 5 4 4 4 4 4 5 5 5 4 4 4 4 4 4 4 4 4 4 4 4 4 4 4 4 4 4 4 4 4 4 4 4 4 4 4 4 4 4 4 4 4 4 4 4 5 4 4 4 4 4 4 3 3 3 3 3 3 3 3 3 3
7 6 6 6 5 5 5 5 6 6 6 6 6 6 6 6 6 5 5 5 5 5 5 5 5 5 5 5 5 5 5 5 5 5 5 5 5 5 5 5 5 5 5 4 4 4 4 4 4 4 4 4 4 4 4 4 4 4 4 4 4 4 4 4 4 4 4 4 4 4 4 4 4 4 4 4 4 4 4 4 4 4 4 4 4 4 5 4 4 4 4 4 3 3 3 3 3 3 3 3 3 3 3
6 6 6 6 6 5 6 6 6 6 6 6 6 6 6 6 6 5 5 5 5 5 5 5 5 5 5 5 5 5 5 5 5 5 5 5 5 5 5 5 5 5 5 5 5 5 5 5 4 4 4 4 4 4 4 4 4 4 4 4 4 4 4 4 4 4 4 4 4 4 5 4 4 4 4 4 4 4 4 4 4 4 4 4 5 5 5 5 4 4 4 3 3 3 3 3 3 3 3 3 3 3 3
6 6 6 6 6 6 6 6 6 7 7 7 6 6 6 6 6 5 5 5 5 5 5 5 5 5 5 5 5 5 5 5 5 5 6 6 5 5 5 5 5 5 5 5 5 5 5 5 5 4 4 4 4 4 4 4 4 4 4 4 4 4 4 4 4 4 4 4 5 5 5 5 4 4 4 4 4 4 4 4 4 5 4 5 5 5 5 5 4 4 4 3 3 3 3 3 3 3 3 3 3 3 3
6 6 6 6 6 6 6 6 7 7 7 7 7 6 6 6 6 5 5 5 5 5 5 5 5 5 5 5 5 5 5 5 5 6 6 6 6 5 5 5 5 5 5 5 5 5 5 5 5 5 4 4 4 4 4 4 4 4 4 4 4 4 4 4 4 4 4 5 5 4 4 4 4 4 4 4 4 4 4 4 5 5 5 5 5 5 5 4 4 4 4 3 3 3 3 3 3 3 3 3 3 3 4
6 6 6 6 6 6 6 7 7 7 7 7 7 6 6 6 6 5 5 5 5 5 5 5 5 5 5 5 5 5 5 5 5 6 6 6 5 5 5 5 5 5 5 5 5 5 5 5 5 5 5 4 4 4 4 4 4 4 4 4 4 4 4 4 4 4 4 4 4 4 4 4 4 4 4 4 4 4 4 5 5 5 5 5 5 5 5 4 4 4 4 3 3 3 4 4 4 4 4 4 4 4 4
6 6 6 7 7 6 6 7 7 7 7 7 6 6 6 6 6 5 5 5 5 5 5 5 5 5 5 5 5 5 5 5 5 6 6 6 6 6 6 5 5 5 5 5 5 5 5 5 5 5 4 4 4 4 4 4 4 4 4 4 4 4 4 4 4 4 4 4 4 4 4 4 4 4 4 4 4 4 4 5 5 5 5 5 5 5 5 4 4 4 4 4 4 4 4 4 4 4 4 4 4 4 5
7 7 7 7 7 7 6 6 7 7 7 7 6 6 6 6 6 5 5 5 5 5 5 5 5 5 5 5 5 6 6 6 6 6 6 6 6 6 6 5 5 5 5 5 5 5 5 5 5 4 4 4 4 3 3 4 4 4 4 4 4 4 4 4 4 4 4 4 4 4 4 4 4 4 4 4 4 4 5 5 5 5 5 5 5 5 5 4 4 4 4 4 4 4 4 4 4 4 4 4 5 5 6
7 7 7 7 7 6 6 6 6 7 7 6 6 6 6 6 5 5 5 5 5 5 5 5 5 5 6 6 6 6 6 6 6 6 6 6 6 6 5 5 5 5 5 5 5 5 4 4 4 4 4 4 3 3 3 3 4 4 4 4 4 4 4 4 4 4 4 4 4 4 4 4 4 4 4 4 5 5 5 5 5 5 6 5 5 5 5 4 4 4 4 4 4 4 4 4 4 4 4 5 5 6 6
7 7 6 6 6 6 6 6 6 6 6 6 6 6 6 6 5 5 5 5 5 5 5 5 5 6 6 6 6 6 6 6 6 6 6 6 6 5 5 5 5 5 5 5 4 4 4 4 4 4 3 3 3 3 3 4 4 4 4 4 4 4 4 4 4 4 4 4 4 4 4 4 4 4 5 5 5 5 5 6 6 6 6 5 5 5 4 4 4 4 4 4 4 4 4 4 4 5 5 5 6 6 7
7 7 6 6 6 6 6 6 6 6 6 6 6 6 6 6 6 5 5 5 5 5 5 5 5 6 6 6 6 6 6 6 6 6 5 5 5 5 5 5 5 5 5 4 4 4 4 4 4 3 3 3 3 3 3 4 4 4 4 4 4 4 4 4 4 4 4 4 4 4 5 5 5 5 5 5 6 6 6 6 6 6 6 5 5 5 4 4 4 4 4 5 5 5 5 5 5 5 6 6 7 7 7
7 7 6 6 6 6 6 6 6 6 6 6 6 6 6 6 6 6 5 5 5 5 5 5 6 6 6 6 6 6 6 6 6 5 5 5 5 5 5 5 5 5 5 4 4 4 4 4 3 3 3 3 3 3 3 4 4 4 4 4 4 4 4 4 4 4 4 5 5 5 5 5 6 6 6 6 6 7 7 7 6 6 6 5 5 4 4 4 4 5 5 5 5 5 5 5 5 6 6 7 7 7 7
7 6 6 6 6 6 6 6 6 6 6 6 6 6 6 6 6 6 6 5 5 5 5 5 6 6 6 6 6 6 6 6 5 5 5 5 5 5 5 4 4 4 4 4 4 4 4 3 3 3 3 3 3 3 4 4 4 4 4 4 4 4 4 4 4 4 5 5 5 5 6 6 6 7 7 7 7 7 7 7 6 6 5 5 5 5 5 5 5 5 5 5 5 5 5 5 6 6 7 7 7 7 7
6 6 6 6 6 6 6 6 6 6 6 6 6 6 6 6 6 6 5 6 6 6 6 6 6 6 6 6 6 6 6 5 5 5 5 5 5 4 4 4 4 4 4 4 4 4 3 3 3 3 3 3 3 3 4 4 4 4 4 4 4 4 4 4 5 5 5 5 6 6 6 7 7 7 7 7 7 7 7 7 6 6 5 5 5 5 5 5 5 5 5 5 5 5 6 6 6 7 7 7 7 7 7
6 6 6 6 6 6 6 6 6 6 6 6 6 6 6 6 5 5 5 6 6 6 6 6 6 6 6 6 6 6 5 5 5 5 5 5 4 4 4 4 4 4 4 4 4 4 3 3 3 3 3 3 3 4 4 4 4 4 4 4 4 4 5 5 5 5 6 6 6 7 7 7 7 8 8 8 7 7 7 6 6 5 5 5 5 5 5 5 5 5 5 5 5 6 6 6 7 7 7 7 7 7 7
6 6 6 6 6 6 6 6 6 6 5 5 6 6 5 5 5 5 5 5 5 5 5 5 6 6 5 5 5 5 5 5 5 5 5 4 4 4 4 4 4 4 4 4 4 4 3 3 3 3 3 4 4 4 4 4 4 4 4 4 5 5 5 5 5 6 6 6 7 7 7 8 8 8 8 8 7 7 6 6 5 5 5 5 5 5 5 5 5 5 5 6 6 6 7 7 7 7 7 7 7 7 7
6 6 6 6 6 6 6 6 6 5 5 5 5 5 5 5 5 5 5 5 5 5 5 5 5 5 5 6 5 5 5 5 5 5 4 4 4 4 4 3 4 4 4 4 4 4 3 3 3 3 3 4 4 5 5 5 5 5 5 5 5 5 5 6 6 6 6 7 7 7 8 8 8 8 8 7 7 6 6 6 5 5 5 5 6 5 5 5 5 5 6 6 6 7 7 7 7 7 7 7 7 7 7
6 6 6 6 6 6 6 6 5 5 5 5 5 5 5 5 5 5 5 6 6 6 6 6 6 6 6 6 6 5 5 5 5 4 4 4 3 4 4 4 4 4 4 4 4 4 4 3 3 4 4 5 5 5 5 5 5 5 5 5 6 6 6 6 7 7 7 7 8 8 8 8 8 8 8 7 7 6 6 6 6 6 6 6 6 5 5 5 5 6 6 6 7 7 7 7 7 7 7 7 7 7 7
6 6 6 6 6 6 6 6 6 5 5 5 5 5 5 6 6 6 6 6 6 6 6 6 6 6 6 5 5 5 5 4 4 4 4 4 4 3 4 4 4 4 5 5 5 5 4 4 4 4 5 5 5 5 5 5 5 6 6 6 6 7 7 7 7 7 7 8 8 8 8 8 8 8 7 7 6 6 6 6 6 6 6 6 5 5 5 5 6 6 6 7 7 7 7 7 7 7 7 7 7 7 7
6 7 7 6 6 6 6 6 6 5 5 5 5 5 5 6 6 6 6 6 6 6 6 6 6 6 5 5 5 5 4 4 4 4 4 4 4 4 4 4 4 5 5 5 5 5 5 5 5 5 5 5 5 6 6 6 6 6 7 7 7 7 7 7 7 8 8 8 8 8 8 8 8 7 7 6 6 6 6 6 6 6 6 5 5 5 5 6 6 6 7 7 7 7 7 7 7 7 7 7 7 7 6
6 7 7 6 6 6 6 6 6 5 5 5 5 5 5 6 6 6 6 6 6 6 6 6 5 5 5 5 4 4 4 4 4 4 4 4 4 4 4 4 4 5 5 5 5 5 5 5 5 5 5 6 6 6 6 7 7 7 7 8 8 8 8 8 8 8 8 8 8 8 8 8 7 7 6 6 6 6 6 6 6 6 5 5 5 5 5 6 6 7 7 7 7 7 7 7 7 7 7 6 6 6 6
6 6 6 6 6 6 6 6 5 5 5 5 5 5 6 6 6 6 6 6 6 6 6 5 5 5 5 4 4 4 4 4 4 4 4 4 4 4 4 4 5 5 5 5 5 5 5 5 5 5 6 6 7 7 7 7 8 8 8 8 8 8 8 8 8 8 8 8 8 8 7 7 7 7 6 6 6 6 6 6 5 5 5 5 5 6 6 6 6 7 7 7 7 7 7 7 6 6 6 6 6 6 6
6 6 6 6 6 6 6 5 5 5 5 5 5 6 6 6 6 6 6 6 6 6 6 5 5 5 5 4 4 4 4 4 4 4 4 4 5 4 4 5 5 5 6 5 5 5 5 5 6 6 6 7 7 7 8 8 8 8 8 8 8 8 8 8 8 8 8 8 8 7 7 7 7 6 6 6 6 6 6 5 5 5 5 5 6 6 6 6 7 7 7 7 6 6 6 6 6 6 6 6 6 6 6
6 6 6 6 6 5 5 5 5 5 5 6 6 6 6 7 7 6 6 6 6 6 5 5 5 5 5 5 5 5 4 4 4 4 4 5 5 5 5 5 5 5 6 5 5 5 5 5 6 6 7 7 8 8 8 8 8 8 8 8 8 8 8 8 8 8 8 8 7 7 7 7 6 6 6 6 6 6 5 5 5 5 5 6 6 6 7 7 7 6 6 6 6 6 6 6 6 6 6 6 6 6 6
6 6 6 5 5 5 5 5 5 5 5 6 6 6 7 7 6 6 6 6 5 5 5 5 5 5 5 5 5 5 4 4 4 4 5 5 5 5 5 5 5 5 5 5 5 5 6 6 6 7 7 8 8 8 9 9 9 8 8 8 8 7 7 7 7 7 8 7 7 7 7 7 6 6 6 6 6 5 5 5 5 5 6 6 7 7 7 6 6 6 6 6 6 6 6 6 6 6 6 6 6 6 6
6 5 6 5 5 5 5 5 5 5 5 6 6 6 6 6 6 6 5 6 5 5 5 5 5 4 4 5 5 5 4 4 4 4 5 5 5 5 5 5 5 5 5 5 5 5 6 6 7 7 8 8 9 9 9 9 9 8 8 8 7 7 7 7 7 7 8 7 7 7 7 7 6 6 6 6 6 5 5 5 6 6 6 7 7 7 6 6 6 6 6 6 5 5 5 6 6 6 6 6 6 7 7
6 6 6 5 5 5 5 5 5 6 6 6 6 6 6 6 5 5 5 5 5 5 5 5 4 4 4 4 4 4 4 4 4 4 5 5 5 5 5 5 5 5 5 5 5 6 6 7 7 8 8 9 9 9 9 9 8 8 8 7 7 7 7 7 7 7 7 7 7 7 7 6 6 6 6 6 5 5 5 6 6 6 7 7 7 6 6 6 5 5 5 5 5 6 6 6 6 6 7 7 7 7 7
5 6 6 5 5 5 5 5 6 6 6 6 6 6 6 5 5 5 5 5 5 5 5 4 4 4 4 4 4 4 4 4 4 4 5 5 5 5 5 5 5 5 5 5 6 6 6 7 8 8 9 9 10 10 9 9 8 8 8 7 7 7 7 7 7 7 7 7 7 7 6 6 6 6 6 5 5 5 6 6 6 7 7 6 6 6 6 5 5 5 5 5 6 6 6 6 7 7 7 7 7 7 7
6 6 6 6 5 5 5 5 6 6 6 6 6 6 5 5 5 5 5 5 5 5 5 4 4 4 4 4 4 4 4 4 4 4 5 5 5 5 5 5 5 5 5 5 6 6 7 7 8 9 9 10 10 9 9 8 8 8 8 7 7 7 7 7 7 7 7 7 7 6 6 6 6 5 5 5 5 6 6 6 6 6 6 6 6 6 5 5 5 5 5 6 6 6 7 7 7 7 7 7 7 7 7
6 6 6 6 5 5 5 5 6 6 6 6 6 5 5 5 5 5 5 5 5 5 4 4 5 4 4 4 4 4 4 4 4 4 5 5 5 5 5 5 5 5 5 5 6 6 7 8 8 9 10 10 10 9 9 8 8 8 7 7 7 7 7 7 7 7 7 7 6 6 6 5 5 5 5 5 5 6 6 6 7 6 6 6 6 5 5 5 5 5 6 6 6 7 7 7 7 7 7 7 7 7 7
6 6 6 6 5 5 5 5 5 5 5 5 5 5 5 5 5 5 4 5 5 5 4 5 4 4 4 4 4 4 4 4 4 4 4 5 5 5 5 5 5 5 5 5 6 6 7 8 9 9 10 10 10 9 8 8 7 7 7 7 7 7 7 7 7 7 7 6 6 6 6 5 5 5 5 5 6 6 7 7 7 7 6 6 6 5 5 5 6 6 6 6 6 7 7 7 7 7 7 7 7 7 6
6 6 6 6 6 5 5 5 6 5 5 5 5 6 5 5 5 5 5 5 5 5 5 4 4 4 5 5 4 4 4 4 4 4 4 4 5 5 5 5 5 5 5 5 6 7 8 8 9 9 10 10 9 8 8 7 7 7 7 7 7 7 7 7 7 7 6 6 6 6 5 5 5 5 5 6 6 7 7 7 7 6 6 6 6 5 5 5 6 6 6 6 7 7 7 7 7 7 7 7 7 7 6
6 6 6 6 6 5 5 6 6 6 5 6 6 6 6 5 5 5 5 5 5 5 5 4 4 4 5 4 4 4 4 4 4 4 4 4 5 5 5 5 5 6 5 5 6 7 8 8 9 10 10 9 9 8 7 7 7 6 7 7 7 7 7 7 7 7 6 6 6 5 5 5 5 5 6 6 7 7 7 7 7 6 6 6 5 5 5 6 6 6 6 6 7 7 7 7 7 7 7 7 7 6 6
6 6 6 6 5 5 5 6 6 6 6 6 6 6 5 5 5 5 4 4 4 5 5 5 4 4 4 4 4 4 4 4 4 4 4 4 4 4 5 5 6 6 6 6 6 7 8 9 9 9 9 9 8 8 7 7 6 6 7 7 7 7 7 7 7 7 6 6 6 5 5 5 5 5 6 7 7 7 7 7 6 6 6 5 5 5 5 5 6 6 6 6 7 7 7 7 7 7 7 7 7 6 6
6 6 6 6 5 5 5 5 6 6 6 6 6 6 5 5 5 5 4 4 4 4 4 5 5 4 3 4 4 4 4 4 4 4 4 4 4 4 4 5 5 6 6 6 7 7 8 9 9 9 9 8 8 8 7 7 6 6 7 7 7 7 7 7 7 7 6 6 5 5 5 5 5 6 6 7 7 7 7 7 6 5 5 5 5 5 5 6 6 6 6 7 7 7 7 7 7 7 7 7 6 6 6
6 6 6 5 5 5 5 5 5 5 5 5 5 5 5 5 5 5 4 4 4 4 4 4 4 4 4 4 4 4 4 4 4 4 4 4 4 4 4 5 5 6 6 7 7 8 8 9 9 9 9 8 8 8 7 6 6 7 7 7 7 7 7 7 7 7 6 6 5 5 5 5 5 6 6 7 7 7 7 6 6 5 5 5 5 5 5 6 6 6 7 7 7 7 7 7 7 7 7 7 6 6 6
6 6 5 5 5 5 5 5 5 5 5 5 5 5 5 5 5 5 4 4 4 4 4 4 4 4 4 4 4 4 4 4 4 4 4 4 4 4 4 5 5 6 6 7 7 8 8 8 8 8 8 8 8 7 7 6 6 7 7 7 8 8 8 7 7 7 6 5 5 5 5 5 6 6 6 7 7 7 6 6 5 5 5 5 5 5 5 6 6 6 7 7 7 7 7 7 7 7 7 7 6 6 6
6 5 5 5 5 5 5 5 5 5 5 5 5 5 5 5 5 5 4 4 4 4 4 4 4 4 4 4 4 4 4 4 4 4 4 4 4 4 4 5 5 6 6 7 7 7 8 8 8 8 8 8 8 7 6 6 7 7 7 8 8 8 8 7 7 6 5 5 5 5 5 5 6 6 6 6 6 6 6 5 5 5 5 5 5 5 6 6 6 7 7 7 7 7 7 7 7 7 7 7 6 6 6
5 5 5 5 5 5 5 5 5 5 5 5 5 5 5 5 5 5 4 4 4 4 4 4 4 4 4 4 4 4 4 4 4 4 4 4 4 4 4 5 5 5 6 7 7 7 7 7 7 8 8 8 7 7 6 6 6 7 7 8 8 8 8 7 6 6 5 5 5 5 5 6 6 6 6 6 6 6 6 5 5 5 5 5 5 5 6 6 7 7 7 7 7 7 7 7 7 7 7 6 6 6 6
5 5 5 5 5 5 5 5 5 5 5 5 5 5 5 5 5 5 4 4 4 4 4 4 4 4 4 4 4 4 4 4 4 4 4 4 4 4 4 5 5 5 6 6 7 7 7 7 7 8 8 7 7 6 6 6 6 7 7 8 8 8 7 6 6 5 4 4 5 5 5 6 6 6 6 6 6 6 5 5 5 5 5 5 5 6 6 7 7 7 7 7 7 7 7 7 7 7 7 6 6 7 7
5 5 5 5 4 4 4 4 4 5 5 5 5 5 5 5 5 5 4 4 3 3 4 4 4 4 3 4 4 4 4 4 4 4 4 4 4 5 5 4 5 5 6 6 6 6 6 7 7 7 7 7 7 6 6 6 6 7 7 7 7 7 7 6 5 4 4 4 5 5 6 6 6 6 6 6 6 6 5 5 5 5 5 5 6 6 6 7 7 7 7 7 7 7 7 7 7 7 7 7 7 7 7
5 5 5 4 4 4 4 5 5 5 5 5 5 5 5 5 5 4 4 4 4 3 3 4 4 4 3 3 3 4 4 4 4 4 4 4 4 4 5 5 5 5 6 7 6 6 6 7 7 7 7 7 6 6 6 6 6 7 7 7 7 7 6 5 5 4 4 4 5 5 6 6 6 6 6 6 6 5 5 5 5 5 5 6 6 6 7 7 7 7 7 7 7 7 7 7 7 7 7 7 7 7 7
5 5 5 5 4 4 4 4 5 5 5 5 5 5 5 5 4 4 4 4 4 4 3 4 4 4 4 4 3 4 4 4 4 4 4 5 4 4 3 4 5 6 6 6 7 7 6 7 7 7 6 6 6 6 6 6 6 7 7 7 7 6 6 5 5 4 4 4 5 6 6 7 7 6 6 6 6 5 5 5 5 5 5 6 6 7 7 7 7 7 7 7 7 7 7 7 7 7 7 7 7 7 7
5 5 5 5 4 4 4 4 4 5 5 5 5 5 5 4 4 4 4 4 4 4 4 4 4 4 5 4 4 4 4 4 4 4 4 5 5 5 4 4 4 5 6 6 7 8 7 7 7 6 6 6 6 6 6 6 6 6 7 7 7 6 6 5 5 4 4 5 5 6 7 7 7 6 6 6 5 5 5 5 5 5 6 6 6 6 6 7 7 7 7 7 7 7 7 7 7 7 7 7 7 7 7
6 5 5 5 5 5 4 4 4 5 5 5 5 5 5 4 4 4 4 4 4 4 4 4 3 3 4 5 4 4 4 4 4 5 5 5 5 5 5 4 5 5 4 5 7 8 8 7 7 6 6 6 6 7 6 6 6 7 7 7 7 7 6 6 5 5 5 5 5 6 7 7 7 7 6 6 5 5 5 5 5 6 6 6 6 6 6 6 6 7 7 7 7 7 7 7 7 7 7 7 7 7 6
6 6 5 5 5 5 5 5 5 5 5 5 5 4 4 4 4 4 4 4 4 4 4 5 4 4 4 5 5 5 5 5 5 5 5 4 4 4 5 6 6 5 4 4 4 5 8 6 6 7 7 6 6 6 6 6 6 7 7 7 7 7 6 6 5 5 5 5 6 6 7 7 7 7 6 6 6 5 5 5 5 6 6 6 6 6 6 6 6 7 7 7 7 7 7 7 7 7 7 7 7 6 6
6 6 6 6 6 5 5 5 5 5 5 5 5 5 4 4 4 4 4 4 4 4 4 5 5 5 4 5 5 5 5 5 5 5 6 5 5 4 5 7 7 6 6 6 5 5 5 5 5 6 7 7 6 6 6 6 7 7 7 7 7 6 6 6 5 5 5 6 6 6 7 7 7 7 6 6 6 5 5 5 5 6 6 6 6 6 6 6 6 7 7 7 7 7 7 7 7 7 7 7 7 6 5
7 7 7 7 7 6 6 6 5 5 5 5 5 5 5 5 4 4 4 4 4 4 4 4 5 5 4 5 5 5 5 5 5 5 6 6 6 5 5 5 5 6 6 8 8 7 4 5 6 7 7 6 6 6 6 7 7 7 7 7 7 6 6 5 5 5 5 6 6 7 7 7 7 7 7 6 6 5 5 5 5 6 6 6 6 6 6 6 7 7 7 7 8 7 7 7 7 7 7 7 6 6 5
8 8 8 8 8 7 7 6 6 6 6 5 5 5 5 5 5 4 4 4 4 4 5 5 5 5 5 5 5 5 5 5 5 6 6 6 6 6 5 4 5 5 6 7 8 8 7 5 5 7 7 6 6 6 6 7 7 7 7 7 6 6 5 5 5 5 5 6 6 7 8 7 7 7 7 6 6 5 5 5 5 5 5 5 6 6 6 6 7 7 7 8 8 7 7 7 7 7 7 7 6 5 4
9 9 9 9 8 8 8 7 7 7 7 6 6 5 5 5 5 5 5 5 5 5 5 5 5 5 5 5 5 5 5 5 6 6 6 6 6 6 7 7 6 5 4 4 5 5 6 5 6 6 5 7 7 7 6 7 7 7 6 6 6 6 5 5 5 5 5 6 7 7 8 8 7 7 6 6 5 5 5 5 5 5 5 5 6 6 6 7 7 7 7 8 8 7 7 7 7 7 7 6 5 5 4
9 9 9 9 8 8 8 8 7 7 7 7 6 6 6 5 5 5 5 5 5 5 5 5 6 5 5 5 6 6 6 5 6 6 7 6 6 6 6 7 7 6 7 5 5 5 4 6 7 7 3 5 7 9 8 7 6 6 6 6 6 5 5 5 5 5 6 6 7 7 8 8 7 7 6 6 5 5 5 5 5 5 5 5 6 6 6 7 7 7 8 8 7 7 7 7 7 7 6 6 5 4 4
9 9 8 8 8 8 7 7 7 7 7 7 7 6 6 6 6 6 5 5 5 5 6 6 6 6 5 5 5 5 5 5 6 6 6 6 7 6 5 5 5 6 6 7 7 7 6 6 6 5 4 5 6 7 9 9 7 5 5 5 5 5 5 5 5 5 6 7 7 8 8 8 7 7 6 6 5 5 5 5 5 5 5 5 6 6 7 7 7 7 8 8 7 7 7 7 7 7 6 5 5 4 4
8 8 8 8 7 7 7 7 7 7 7 7 7 6 6 6 6 5 5 5 5 6 7 7 7 6 6 5 5 5 5 5 5 6 5 6 6 6 5 5 5 5 5 6 7 8 8 8 6 5 5 5 5 5 7 8 8 6 5 5 5 5 5 6 5 5 6 7 7 8 8 7 7 7 6 6 5 5 5 5 5 5 5 6 6 6 7 7 7 8 8 7 7 7 7 7 7 6 6 5 4 4 4
8 7 7 7 7 7 7 7 7 7 7 7 7 6 6 6 5 5 5 6 6 7 7 7 7 6 6 5 5 5 5 5 6 6 6 6 6 5 5 5 5 5 5 6 7 7 8 8 7 6 6 6 5 6 7 6 6 6 6 5 5 5 5 6 6 5 6 7 7 8 7 7 7 6 6 6 6 5 5 5 5 5 5 6 6 6 7 7 7 8 8 7 7 7 7 7 7 6 6 5 4 4 4
Height
3149 3149 3149 3149 3149 3149 3149 3149 3149 3149 3149 3149 3149 3149 3149 3149 3149 3149 3149 3149 3149 3149 3149 3149 3149 3149 3149 3149 3149 3149 3149 3149 3149 3149 3149 3149 3149 3149 3149 3149 3149 3149 3148 3148 3148 3148 3147 3147 3147 3147 3147 3146 3146 3146 3146 3145 3145 3145 3144 3144 3144 3143 3143 3143 3142 3142 3141 3141 3140 3140 3139 3139 3138 3138 3137 3137 3136 3135 3135 3134 3133 3133 3132 3132 3131 3130 3130 3129 3128 3128 3127 3127 3126 3125 3124 3123 3123 3122 3121 3120 3120 3119 3118
3148 3149 3149 3149 3149 3149 3149 3149 3149 3149 3149 3149 3149 3149 3149 3149 3149 3149 3149 3149 3149 3149 3149 3149 3149 3149 3149 3149 3149 3149 3149 3149 3149 3149 3149 3149 3149 3149 3149 3149 3149 3149 3148 3148 3148 3147 3147 3147 3147 3147 3147 3146 3146 3146 3146 3145 3145 3145 3144 3144 3143 3143 3143 3143 3142 3142 3141 3141 3140 3140 3139 3138 3138 3138 3137 3136 3136 3135 3134 3133 3133 3132 3132 3131 3130 3130 3129 3128 3128 3127 3127 3126 3125 3124 3123 3123 3122 3121 3120 3120 3119 3118 3117
3148 3148 3149 3149 3148 3148 3148 3148 3148 3149 3148 3148 3149 3149 3149 3149 3149 3149 3149 3149 3149 3149 3149 3149 3149 3149 3149 3149 3149 3149 3149 3149 3149 3149 3149 3149 3149 3149 3149 3149 3149 3149 3148 3148 3147 3147 3147 3147 3147 3147 3146 3146 3146 3146 3145 3145 3145 3144 3144 3144 3143 3143 3143 3142 3142 3141 3141 3140 3140 3139 3139 3138 3138 3137 3136 3136 3135 3134 3133 3133 3132 3132 3131 3130 3130 3129 3128 3128 3127 3127 3126 3125 3124 3123 3123 3122 3121 3120 3120 3119 3118 3117 3116
3148 3148 3148 3148 3148 3148 3148 3148 3148 3148 3148 3148 3148 3149 3149 3149 3149 3149 3149 3149 3149 3149 3149 3149 3149 3149 3149 3149 3149 3149 3149 3149 3149 3149 3149 3149 3149 3149 3149 3149 3149 3148 3148 3148 3147 3147 3147 3147 3147 3147 3146 3146 3146 3146 3145 3145 3145 3144 3144 3144 3143 3143 3142 3142 3142 3141 3141 3140 3139 3139 3138 3138 3137 3137 3136 3135 3134 3134 3133 3132 3132 3131 3130 3130 3129 3128 3128 3127 3127 3126 3125 3124 3123 3123 3122 3121 3120 3119 3119 3118 3117 3116 3115
3148 3148 3148 3148 3148 3148 3148 3148 3148 3148 3148 3148 3148 3148 3149 3149 3149 3149 3149 3149 3149 3149 3149 3149 3149 3149 3149 3149 3149 3149 3149 3149 3149 3149 3149 3149 3149 3149 3149 3149 3149 3148 3148 3148 3147 3147 3147 3147 3147 3147 3146 3146 3146 3145 3145 3145 3145 3144 3144 3143 3143 3143 3142 3142 3141 3141 3140 3140 3139 3138 3138 3137 3137 3136 3135 3135 3134 3133 3133 3132 3131 3130 3130 3129 3128 3128 3127 3127 3126 3125 3124 3123 3123 3122 3121 3120 3119 3119 3118 3117 3116 3115 3114
3148 3148 3148 3148 3148 3148 3148 3148 3148 3148 3148 3148 3148 3148 3149 3149 3149 3149 3149 3149 3149 3149 3149 3149 3149 3149 3149 3149 3149 3149 3149 3149 3149 3149 3149 3149 3149 3149 3149 3148 3148 3148 3148 3148 3147 3147 3147 3147 3147 3146 3146 3146 3146 3145 3145 3145 3144 3144 3144 3143 3143 3142 3142 3141 3141 3140 3140 3139 3139 3138 3138 3137 3136 3135 3135 3134 3133 3133 3132 3131 3130 3130 3129 3128 3128 3127 3127 3126 3125 3124 3123 3123 3122 3121 3120 3119 3118 3118 3117 3116 3115 3114 3113
3148 3148 3148 3148 3148 3148 3148 3148 3148 3148 3148 3148 3148 3149 3149 3149 3149 3149 3149 3149 3149 3149 3149 3149 3149 3149 3149 3149 3149 3149 3149 3149 3149 3149 3149 3149 3149 3148 3148 3148 3148 3148 3148 3148 3147 3147 3147 3147 3146 3146 3146 3146 3145 3145 3145 3144 3144 3144 3143 3143 3143 3142 3142 3141 3141 3140 3139 3139 3138 3138 3137 3136 3136 3135 3134 3133 3133 3132 3131 3130 3130 3129 3128 3128 3127 3126 3126 3125 3124 3123 3123 3121 3121 3120 3119 3118 3117 3117 3116 3114 3113 3113 3112
3148 3148 3148 3148 3148 3148 3148 3148 3148 3148 3148 3149 3149 3149 3149 3149 3149 3149 3149 3149 3149 3149 3149 3149 3149 3149 3149 3149 3149 3149 3149 3149 3149 3149 3149 3149 3149 3148 3148 3148 3148 3148 3148 3148 3147 3147 3147 3147 3146 3146 3146 3146 3145 3145 3145 3144 3144 3143 3143 3143 3142 3142 3141 3141 3140 3140 3139 3138 3138 3137 3136 3136 3135 3134 3133 3133 3132 3131 3130 3130 3129 3128 3128 3127 3126 3126 3125 3124 3123 3123 3122 3120 3119 3119 3118 3117 3116 3115 3114 3113 3112 3111 3110
3148 3148 3148 3148 3148 3148 3148 3148 3148 3148 3148 3149 3149 3149 3149 3149 3149 3149 3149 3149 3149 3149 3149 3149 3149 3149 3149 3149 3149 3149 3149 3149 3149 3149 3149 3149 3149 3148 3148 3148 3148 3148 3148 3148 3147 3147 3147 3147 3146 3146 3146 3145 3145 3145 3144 3144 3144 3143 3143 3142 3142 3141 3141 3140 3140 3139 3138 3138 3137 3137 3136 3135 3134 3133 3133 3132 3131 3131 3130 3129 3128 3128 3127 3126 3125 3125 3124 3123 3122 3121 3120 3119 3119 3118 3117 3116 3115 3114 3113 3112 3111 3110 3109
3148 3148 3148 3148 3148 3148 3148 3148 3148 3148 3149 3149 3149 3149 3149 3149 3149 3149 3149 3149 3149 3149 3149 3149 3149 3149 3149 3149 3149 3149 3149 3149 3149 3149 3149 3149 3149 3148 3148 3148 3148 3148 3148 3148 3147 3147 3147 3147 3146 3146 3146 3145 3145 3144 3144 3144 3143 3143 3143 3142 3141 3141 3140 3140 3139 3138 3138 3137 3137 3136 3135 3134 3134 3133 3132 3131 3131 3130 3129 3128 3128 3127 3126 3125 3125 3124 3123 3122 3121 3120 3119 3118 3118 3117 3116 3115 3114 3113 3112 3111 3110 3109 3108
3148 3148 3148 3148 3148 3148 3148 3148 3148 3148 3149 3149 3149 3149 3149 3149 3149 3149 3149 3149 3149 3149 3149 3149 3149 3149 3149 3149 3149 3149 3149 3149 3149 3149 3149 3149 3148 3148 3148 3148 3148 3148 3148 3147 3147 3147 3147 3147 3146 3146 3145 3145 3145 3144 3144 3143 3143 3143 3142 3141 3141 3140 3140 3139 3138 3138 3137 3137 3136 3135 3134 3134 3133 3132 3131 3131 3130 3129 3128 3128 3127 3126 3125 3125 3124 3123 3122 3121 3120 3119 3118 3118 3117 3116 3115 3114 3113 3112 3111 3109 3108 3107 3106
3148 3148 3148 3148 3148 3148 3148 3148 3148 3149 3149 3149 3149 3149 3149 3149 3149 3149 3149 3149 3149 3149 3149 3149 3149 3149 3149 3149 3149 3149 3149 3149 3149 3149 3149 3148 3148 3148 3148 3148 3148 3148 3148 3147 3147 3147 3147 3146 3146 3146 3145 3145 3144 3144 3143 3143 3143 3142 3142 3141 3140 3140 3139 3138 3138 3137 3137 3136 3135 3135 3134 3133 3132 3131 3131 3130 3129 3128 3128 3127 3126 3125 3124 3124 3123 3122 3121 3120 3119 3118 3117 3116 3116 3115 3113 3113 3112 3110 3109 3108 3107 3106 3105
3148 3148 3148 3148 3148 3148 3148 3148 3148 3149 3149 3149 3149 3149 3149 3149 3149 3149 3149 3149 3149 3149 3149 3149 3149 3149 3149 3149 3149 3149 3149 3149 3149 3149 3149 3148 3148 3148 3148 3148 3148 3148 3147 3147 3147 3147 3146 3146 3146 3145 3145 3144 3144 3143 3143 3143 3142 3142 3141 3140 3140 3139 3138 3138 3137 3137 3136 3135 3135 3134 3133 3133 3132 3131 3130 3129 3128 3127 3127 3126 3125 3124 3123 3123 3122 3121 3120 3119 3118 3117 3116 3115 3114 3113 3113 3111 3110 3109 3108 3107 3106 3105 3103
3148 3148 3148 3148 3148 3148 3148 3148 3148 3149 3149 3149 3149 3149 3149 3149 3149 3149 3149 3149 3149 3149 3149 3149 3149 3149 3149 3149 3149 3149 3149 3149 3149 3149 3148 3148 3148 3148 3148 3148 3148 3147 3147 3147 3147 3146 3146 3146 3145 3145 3144 3144 3143 3143 3143 3142 3142 3141 3140 3140 3139 3138 3138 3137 3137 3136 3135 3134 3134 3133 3133 3132 3131 3130 3129 3128 3127 3126 3126 3125 3124 3123 3123 3122 3121 3120 3119 3118 3117 3116 3115 3114 3113 3112 3111 3110 3109 3108 3107 3106 3104 3103 3102
3148 3148 3148 3148 3148 3148 3148 3148 3149 3149 3149 3149 3149 3149 3149 3149 3149 3149 3149 3149 3149 3149 3149 3149 3149 3149 3149 3149 3149 3149 3149 3149 3149 3149 3148 3148 3148 3148 3148 3148 3147 3147 3147 3147 3146 3146 3146 3145 3145 3144 3144 3143 3143 3143 3142 3142 3141 3140 3140 3139 3138 3138 3137 3136 3136 3135 3134 3134 3133 3133 3132 3131 3130 3129 3128 3127 3126 3125 3125 3124 3123 3122 3121 3121 3120 3119 3118 3117 3116 3115 3114 3113 3112 3111 3110 3109 3108 3107 3105 3104 3103 3102 3100
3148 3148 3148 3148 3148 3148 3148 3148 3149 3149 3149 3149 3149 3149 3149 3149 3149 3149 3149 3149 3149 3149 3149 3149 3149 3149 3149 3149 3149 3149 3149 3149 3149 3148 3148 3148 3148 3148 3148 3147 3147 3147 3147 3146 3146 3146 3145 3145 3144 3144 3143 3143 3143 3142 3142 3141 3140 3140 3139 3138 3138 3137 3136 3136 3135 3134 3134 3133 3133 3132 3131 3130 3129 3128 3127 3126 3125 3124 3123 3123 3122 3121 3120 3119 3119 3118 3117 3116 3115 3114 3113 3112 3111 3110 3109 3108 3106 3105 3104 3103 3102 3100 3099
3148 3148 3148 3148 3148 3148 3148 3148 3149 3149 3149 3149 3149 3149 3149 3149 3149 3149 3149 3149 3149 3149 3149 3149 3149 3149 3149 3149 3149 3149 3149 3149 3148 3148 3148 3148 3148 3148 3147 3147 3147 3147 3146 3146 3146 3145 3145 3144 3144 3143 3143 3142 3142 3141 3141 3140 3140 3139 3138 3138 3137 3136 3136 3135 3134 3133 3133 3132 3132 3131 3130 3129 3128 3127 3126 3125 3124 3123 3123 3122 3121 3120 3119 3118 3118 3117 3116 3115 3114 3113 3112 3111 3110 3108 3108 3106 3105 3104 3103 3101 3100 3099 3098
3148 3148 3148 3148 3148 3148 3148 3148 3149 3149 3149 3149 3149 3149 3149 3149 3149 3149 3149 3149 3149 3149 3149 3149 3149 3149 3149 3149 3149 3149 3149 3148 3148 3148 3148 3148 3148 3148 3147 3147 3147 3147 3146 3146 3145 3145 3144 3144 3143 3143 3142 3142 3141 3141 3140 3139 3139 3138 3138 3137 3136 3135 3135 3134 3133 3133 3132 3132 3131 3130 3129 3128 3127 3126 3125 3124 3123 3123 3122 3121 3120 3119 3118 3117 3116 3115 3114 3113 3113 3112 3111 3109 3108 3107 3106 3105 3103 3102 3101 3100 3098 3097 3096
3148 3148 3148 3148 3148 3148 3148 3148 3148 3149 3149 3149 3149 3149 3149 3149 3149 3149 3149 3149 3149 3149 3149 3149 3149 3149 3149 3149 3149 3149 3148 3148 3148 3148 3148 3148 3148 3147 3147 3147 3147 3146 3146 3145 3145 3144 3144 3143 3143 3142 3142 3141 3141 3140 3140 3139 3138 3138 3137 3136 3136 3135 3134 3133 3133 3132 3131 3131 3130 3129 3128 3127 3126 3125 3124 3123 3123 3122 3121 3120 3119 3118 3117 3116 3115 3114 3113 3112 3111 3110 3109 3108 3107 3106 3105 3103 3102 3101 3099 3098 3097 3096 3094
3147 3148 3148 3148 3148 3148 3148 3148 3148 3149 3149 3149 3149 3149 3149 3149 3149 3149 3149 3149 3149 3149 3149 3149 3149 3149 3149 3149 3149 3148 3148 3148 3148 3148 3148 3148 3147 3147 3147 3147 3146 3146 3146 3145 3144 3143 3143 3143 3142 3142 3141 3141 3140 3140 3139 3138 3138 3137 3136 3136 3135 3134 3133 3133 3132 3131 3130 3129 3129 3128 3127 3126 3125 3124 3123 3122 3121 3121 3120 3119 3118 3117 3116 3115 3114 3113 3112 3111 3110 3109 3108 3107 3106 3105 3103 3102 3101 3099 3098 3097 3095 3094 3093
3147 3147 3148 3148 3148 3148 3148 3148 3148 3148 3149 3149 3149 3149 3149 3149 3149 3149 3149 3149 3149 3149 3149 3149 3149 3149 3149 3149 3148 3148 3148 3148 3148 3148 3148 3147 3147 3147 3147 3146 3146 3146 3145 3145 3144 3143 3143 3142 3142 3141 3141 3140 3140 3139 3138 3138 3137 3137 3136 3135 3134 3133 3132 3132 3131 3130 3129 3128 3128 3127 3126 3125 3124 3123 3122 3121 3120 3119 3118 3118 3117 3116 3115 3114 3113 3112 3111 3110 3109 3108 3107 3106 3105 3103 3102 3101 3099 3098 3096 3095 3094 3093 3091
3147 3147 3148 3148 3148 3148 3148 3148 3148 3148 3148 3149 3149 3149 3149 3149 3149 3149 3149 3149 3149 3149 3149 3149 3149 3149 3148 3148 3148 3148 3148 3148 3148 3147 3147 3147 3147 3147 3146 3146 3146 3146 3145 3145 3144 3143 3142 3141 3141 3140 3140 3140 3139 3139 3138 3137 3137 3136 3135 3134 3133 3133 3132 3131 3130 3129 3128 3128 3127 3126 3125 3124 3123 3122 3121 3120 3119 3118 3118 3117 3116 3115 3114 3113 3112 3111 3110 3108 3108 3107 3106 3104 3103 3102 3101 3099 3098 3096 3095 3093 3092 3091 3089
3147 3147 3147 3148 3148 3148 3148 3148 3148 3148 3148 3148 3149 3149 3149 3149 3149 3149 3149 3149 3149 3149 3149 3149 3149 3149 3148 3148 3148 3148 3148 3148 3147 3147 3147 3147 3147 3146 3146 3146 3145 3145 3145 3144 3143 3143 3142 3141 3140 3140 3139 3139 3139 3138 3137 3137 3136 3135 3134 3133 3133 3132 3131 3130 3129 3128 3128 3127 3126 3125 3124 3123 3122 3121 3120 3119 3118 3118 3117 3116 3115 3114 3113 3112 3111 3109 3108 3107 3106 3105 3104 3103 3102 3100 3099 3098 3096 3095 3093 3092 3091 3089 3088
3147 3147 3147 3147 3148 3148 3148 3148 3148 3148 3148 3148 3148 3149 3149 3149 3149 3149 3149 3149 3149 3149 3149 3149 3148 3148 3148 3148 3148 3148 3148 3147 3147 3147 3147 3147 3146 3146 3146 3145 3145 3145 3145 3144 3143 3143 3142 3141 3140 3139 3139 3138 3138 3137 3137 3136 3135 3134 3133 3133 3132 3131 3130 3129 3128 3127 3127 3126 3125 3124 3123 3122 3121 3120 3119 3118 3118 3117 3116 3115 3114 3113 3112 3111 3109 3108 3107 3106 3105 3104 3103 3102 3100 3099 3098 3096 3095 3093 3092 3091 3089 3088 3086
3147 3147 3147 3147 3147 3148 3148 3148 3148 3148 3148 3148 3148 3148 3148 3149 3149 3149 3149 3149 3148 3148 3148 3148 3148 3148 3148 3148 3148 3148 3147 3147 3147 3147 3146 3146 3146 3146 3145 3145 3145 3145 3144 3144 3143 3143 3142 3141 3140 3139 3138 3138 3137 3137 3136 3135 3134 3133 3133 3132 3131 3130 3129 3128 3128 3127 3126 3125 3124 3123 3122 3121 3120 3119 3118 3118 3116 3115 3114 3113 3113 3112 3111 3109 3108 3107 3106 3105 3104 3103 3102 3100 3099 3098 3096 3095 3093 3092 3091 3089 3088 3086 3085
3146 3147 3147 3147 3147 3147 3148 3148 3148 3148 3148 3148 3148 3148 3148 3148 3148 3148 3148 3148 3148 3148 3148 3148 3148 3148 3148 3148 3148 3147 3147 3147 3147 3146 3146 3146 3145 3145 3145 3144 3144 3144 3144 3143 3143 3142 3141 3140 3139 3139 3138 3138 3137 3136 3135 3134 3134 3133 3132 3131 3130 3129 3128 3128 3127 3126 3125 3124 3123 3122 3121 3120 3119 3118 3118 3116 3115 3114 3113 3113 3112 3110 3109 3108 3107 3106 3104 3103 3102 3101 3100 3099 3098 3096 3095 3093 3092 3090 3089 3088 3086 3084 3083
3146 3146 3147 3147 3147 3147 3147 3148 3148 3148 3148 3148 3148 3148 3148 3148 3148 3148 3148 3148 3148 3148 3148 3148 3148 3148 3148 3147 3147 3147 3147 3147 3146 3146 3146 3145 3145 3145 3144 3144 3144 3143 3143 3143 3142 3141 3141 3140 3139 3138 3138 3137 3136 3136 3135 3134 3133 3132 3131 3130 3129 3128 3128 3127 3126 3125 3124 3123 3122 3121 3120 3119 3118 3117 3116 3115 3114 3113 3112 3111 3110 3109 3108 3107 3106 3104 3103 3102 3101 3100 3098 3097 3096 3095 3093 3092 3090 3089 3088 3086 3084 3083 3081
3146 3146 3147 3147 3147 3147 3147 3147 3147 3148 3148 3148 3148 3148 3148 3148 3148 3148 3148 3148 3148 3148 3148 3148 3148 3148 3147 3147 3147 3147 3147 3147 3146 3146 3146 3145 3145 3144 3144 3143 3143 3143 3143 3142 3141 3141 3140 3139 3138 3138 3137 3137 3136 3135 3134 3133 3132 3131 3130 3129 3128 3128 3127 3126 3125 3124 3123 3122 3121 3120 3119 3118 3117 3116 3115 3114 3113 3112 3111 3110 3109 3108 3107 3106 3104 3103 3102 3101 3099 3098 3097 3096 3094 3093 3092 3090 3089 3087 3086 3084 3083 3081 3080
3146 3146 3146 3146 3147 3147 3147 3147 3147 3147 3147 3148 3148 3148 3148 3148 3148 3148 3148 3148 3148 3148 3148 3148 3148 3147 3147 3147 3147 3147 3147 3146 3146 3146 3145 3145 3145 3144 3144 3143 3143 3143 3142 3142 3141 3140 3139 3139 3138 3137 3137 3136 3135 3134 3133 3133 3132 3131 3130 3129 3128 3127 3126 3125 3124 3123 3122 3121 3120 3119 3118 3118 3116 3115 3114 3113 3112 3111 3110 3109 3108 3107 3106 3104 3103 3102 3101 3099 3098 3097 3096 3094 3093 3092 3090 3088 3087 3086 3084 3083 3081 3080 3078
3146 3146 3146 3146 3146 3146 3147 3147 3147 3147 3147 3147 3147 3148 3148 3148 3148 3148 3148 3148 3148 3148 3148 3147 3147 3147 3147 3147 3147 3147 3146 3146 3146 3146 3145 3145 3144 3144 3143 3143 3143 3142 3142 3141 3140 3140 3139 3138 3138 3137 3136 3135 3134 3133 3133 3132 3131 3130 3129 3128 3127 3126 3125 3124 3123 3122 3121 3120 3119 3118 3118 3117 3115 3114 3113 3113 3111 3110 3109 3108 3107 3106 3104 3103 3102 3101 3099 3098 3097 3096 3094 3093 3091 3090 3088 3087 3085 3084 3082 3081 3079 3078 3076
3145 3145 3146 3146 3146 3146 3146 3146 3146 3147 3147 3147 3147 3147 3147 3147 3147 3147 3147 3147 3147 3147 3147 3147 3147 3147 3147 3147 3146 3146 3146 3146 3145 3145 3145 3144 3144 3143 3143 3143 3142 3142 3141 3140 3140 3139 3138 3138 3137 3136 3135 3134 3133 3133 3132 3131 3130 3129 3128 3127 3126 3125 3124 3123 3122 3121 3120 3119 3118 3118 3117 3116 3115 3114 3113 3112 3111 3109 3108 3107 3106 3105 3103 3102 3101 3100 3098 3097 3096 3094 3093 3091 3090 3088 3087 3085 3084 3082 3081 3079 3078 3076 3075
3145 3145 3145 3145 3146 3146 3146 3146 3146 3146 3146 3147 3147 3147 3147 3147 3147 3147 3147 3147 3147 3147 3147 3147 3146 3146 3146 3146 3146 3146 3145 3145 3145 3144 3144 3144 3143 3143 3142 3142 3142 3141 3140 3140 3139 3138 3138 3137 3136 3135 3134 3133 3133 3132 3131 3130 3129 3128 3127 3126 3125 3124 3123 3122 3121 3120 3119 3118 3118 3117 3116 3115 3114 3113 3112 3111 3110 3109 3108 3106 3105 3104 3103 3101 3100 3098 3097 3096 3094 3093 3091 3090 3088 3087 3085 3084 3082 3081 3079 3078 3076 3075 3073
3145 3145 3145 3145 3145 3145 3145 3146 3146 3146 3146 3146 3146 3146 3146 3147 3147 3147 3147 3147 3146 3146 3146 3146 3146 3146 3146 3145 3145 3145 3145 3144 3144 3144 3143 3143 3143 3142 3142 3141 3141 3140 3140 3139 3138 3138 3137 3136 3135 3134 3133 3133 3132 3131 3130 3129 3128 3127 3126 3125 3124 3123 3122 3121 3120 3119 3118 3118 3117 3116 3115 3114 3113 3112 3111 3110 3109 3108 3107 3105 3104 3103 3101 3100 3099 3097 3096 3094 3093 3091 3090 3088 3087 3085 3084 3082 3081 3079 3078 3076 3075 3073 3071
3144 3144 3145 3145 3145 3145 3145 3145 3145 3146 3146 3146 3146 3146 3146 3146 3146 3146 3146 3146 3146 3146 3146 3145 3145 3145 3145 3145 3145 3144 3144 3144 3143 3143 3143 3143 3142 3141 3141 3140 3140 3139 3139 3138 3138 3137 3136 3135 3134 3133 3133 3132 3131 3130 3129 3128 3127 3126 3125 3124 3123 3123 3122 3121 3120 3118 3118 3117 3116 3115 3114 3113 3112 3111 3110 3109 3108 3107 3106 3104 3103 3102 3100 3099 3097 3096 3094 3093 3091 3090 3088 3087 3085 3084 3083 3081 3079 3078 3076 3075 3073 3072 3070
3144 3144 3144 3144 3145 3145 3145 3145 3145 3145 3145 3146 3146 3146 3146 3146 3146 3146 3145 3145 3145 3145 3145 3145 3145 3145 3144 3144 3144 3144 3143 3143 3143 3143 3142 3142 3141 3141 3140 3139 3139 3138 3138 3138 3137 3136 3135 3135 3134 3133 3132 3131 3130 3129 3128 3128 3127 3126 3125 3124 3123 3122 3121 3120 3119 3118 3117 3116 3115 3114 3113 3112 3111 3111 3110 3108 3108 3106 3105 3103 3102 3100 3099 3098 3096 3095 3093 3092 3090 3088 3087 3086 3084 3083 3081 3080 3078 3077 3075 3073 3072 3070 3068
3143 3144 3144 3144 3144 3144 3144 3145 3145 3145 3145 3145 3145 3145 3145 3145 3145 3145 3145 3145 3145 3145 3145 3144 3144 3144 3144 3144 3144 3143 3143 3143 3142 3142 3142 3141 3140 3140 3139 3139 3138 3138 3137 3137 3136 3135 3135 3134 3133 3132 3131 3130 3129 3128 3128 3127 3126 3125 3124 3123 3122 3121 3120 3119 3118 3117 3116 3115 3114 3113 3112 3111 3110 3110 3109 3108 3107 3105 3104 3102 3101 3099 3098 3096 3095 3093 3092 3090 3089 3088 3086 3084 3083 3082 3080 3078 3077 3075 3073 3072 3070 3068 3066
3143 3143 3144 3144 3144 3144 3144 3144 3144 3144 3145 3145 3145 3145 3145 3145 3145 3144 3144 3144 3144 3144 3144 3144 3144 3143 3143 3143 3143 3143 3143 3142 3142 3141 3141 3140 3140 3139 3139 3138 3137 3137 3136 3136 3135 3134 3134 3133 3132 3131 3130 3129 3128 3128 3127 3126 3125 3124 3123 3122 3121 3120 3119 3118 3118 3117 3116 3115 3113 3113 3112 3110 3109 3109 3108 3107 3106 3104 3103 3101 3100 3098 3097 3095 3094 3093 3091 3089 3088 3086 3085 3083 3082 3080 3079 3077 3075 3073 3072 3070 3068 3067 3065
3143 3143 3143 3143 3143 3144 3144 3144 3144 3144 3144 3144 3144 3144 3144 3144 3144 3144 3144 3144 3144 3144 3143 3143 3143 3143 3143 3143 3143 3142 3142 3141 3141 3140 3140 3139 3139 3138 3138 3137 3137 3136 3135 3135 3134 3133 3133 3132 3131 3130 3130 3129 3128 3127 3126 3125 3124 3123 3123 3122 3121 3120 3119 3118 3117 3116 3115 3114 3113 3112 3111 3110 3108 3108 3107 3106 3105 3103 3102 3100 3099 3098 3096 3095 3093 3092 3090 3088 3087 3085 3084 3082 3080 3079 3078 3076 3074 3072 3070 3068 3067 3065 3063
3143 3143 3143 3143 3143 3143 3143 3143 3143 3143 3144 3144 3144 3144 3144 3144 3144 3143 3143 3143 3143 3143 3143 3143 3143 3143 3142 3142 3142 3141 3141 3140 3140 3140 3139 3139 3138 3138 3137 3137 3136 3135 3134 3134 3133 3133 3132 3131 3130 3130 3129 3128 3127 3126 3126 3125 3124 3123 3122 3121 3120 3119 3118 3117 3116 3115 3114 3113 3112 3111 3110 3109 3108 3107 3106 3105 3103 3102 3101 3099 3098 3097 3095 3094 3092 3091 3089 3087 3086 3084 3083 3081 3079 3078 3076 3074 3073 3071 3068 3067 3065 3063 3061
3142 3142 3142 3143 3143 3143 3143 3143 3143 3143 3143 3143 3143 3143 3143 3143 3143 3143 3143 3143 3143 3143 3143 3143 3142 3142 3142 3141 3141 3141 3140 3140 3139 3139 3138 3138 3138 3137 3137 3136 3135 3135 3134 3133 3132 3132 3131 3130 3130 3129 3128 3128 3127 3126 3125 3124 3123 3122 3121 3120 3119 3118 3117 3116 3115 3114 3113 3112 3111 3110 3109 3108 3107 3106 3105 3104 3103 3101 3100 3098 3097 3096 3094 3093 3091 3089 3088 3086 3084 3083 3081 3079 3078 3076 3074 3073 3071 3069 3067 3065 3063 3061 3059
3141 3142 3142 3142 3142 3142 3142 3142 3142 3143 3143 3143 3143 3143 3143 3143 3143 3143 3142 3142 3142 3142 3142 3142 3141 3141 3141 3141 3140 3140 3139 3139 3138 3138 3138 3137 3137 3136 3136 3135 3135 3134 3133 3132 3131 3131 3130 3130 3129 3128 3128 3127 3126 3125 3124 3123 3123 3122 3121 3120 3118 3118 3117 3116 3114 3113 3112 3111 3110 3109 3108 3107 3105 3104 3103 3103 3101 3100 3099 3097 3096 3094 3093 3091 3090 3088 3087 3085 3083 3082 3080 3078 3076 3075 3073 3071 3069 3068 3066 3063 3062 3060 3058
3141 3141 3141 3141 3141 3141 3141 3142 3142 3142 3142 3142 3142 3142 3142 3142 3142 3142 3142 3141 3141 3141 3141 3141 3141 3140 3140 3140 3139 3139 3138 3138 3138 3137 3137 3136 3136 3135 3134 3134 3133 3133 3132 3131 3131 3130 3129 3129 3128 3128 3127 3126 3125 3124 3123 3123 3122 3121 3120 3119 3118 3117 3116 3115 3114 3113 3112 3110 3109 3108 3107 3105 3104 3103 3102 3101 3100 3099 3097 3096 3094 3093 3092 3090 3088 3087 3085 3083 3082 3080 3078 3077 3075 3073 3072 3070 3068 3066 3064 3062 3060 3058 3056
3140 3140 3140 3141 3141 3141 3141 3141 3141 3141 3141 3141 3141 3142 3142 3142 3141 3141 3141 3141 3141 3141 3140 3140 3140 3140 3139 3139 3138 3138 3138 3137 3137 3137 3136 3135 3134 3134 3133 3133 3133 3132 3131 3131 3130 3129 3128 3128 3127 3127 3126 3125 3124 3124 3123 3122 3121 3120 3119 3118 3117 3116 3115 3114 3113 3112 3111 3109 3108 3107 3106 3104 3103 3102 3101 3099 3098 3097 3096 3095 3093 3092 3090 3088 3087 3085 3084 3082 3081 3079 3077 3076 3074 3072 3070 3068 3066 3064 3063 3060 3058 3056 3054
3139 3140 3140 3140 3140 3140 3140 3140 3140 3140 3141 3141 3141 3141 3141 3141 3141 3140 3140 3140 3140 3140 3140 3139 3139 3139 3139 3138 3138 3138 3137 3137 3136 3136 3135 3134 3134 3133 3133 3132 3132 3131 3130 3130 3129 3128 3127 3127 3126 3125 3125 3124 3123 3123 3122 3121 3120 3119 3118 3117 3116 3115 3114 3113 3112 3111 3110 3108 3107 3106 3105 3103 3102 3100 3099 3098 3097 3096 3095 3093 3092 3090 3089 3087 3086 3084 3083 3081 3079 3078 3076 3074 3073 3071 3069 3067 3065 3063 3061 3059 3057 3055 3053
3139 3139 3139 3139 3139 3139 3139 3139 3139 3140 3140 3140 3140 3140 3140 3140 3140 3140 3139 3139 3139 3139 3139 3139 3139 3138 3138 3138 3137 3137 3137 3136 3136 3135 3134 3134 3133 3132 3131 3131 3130 3130 3129 3129 3128 3127 3126 3125 3125 3124 3123 3123 3122 3122 3121 3120 3119 3118 3118 3117 3115 3114 3113 3112 3111 3110 3109 3108 3106 3105 3103 3102 3101 3099 3098 3097 3096 3094 3093 3092 3091 3089 3088 3086 3084 3083 3081 3080 3078 3076 3075 3073 3071 3069 3067 3065 3063 3061 3059 3057 3055 3053 3051
3138 3138 3138 3138 3138 3138 3138 3139 3139 3139 3139 3139 3139 3139 3139 3139 3139 3139 3139 3138 3138 3138 3138 3138 3138 3138 3137 3137 3137 3136 3136 3135 3135 3134 3133 3133 3132 3131 3130 3130 3129 3129 3128 3128 3127 3126 3125 3124 3124 3123 3123 3122 3121 3120 3119 3119 3118 3117 3116 3115 3114 3113 3112 3111 3110 3109 3108 3107 3105 3104 3103 3101 3099 3098 3097 3095 3094 3093 3092 3091 3089 3088 3087 3085 3083 3082 3080 3078 3077 3075 3073 3072 3070 3068 3066 3064 3062 3060 3058 3056 3053 3051 3049
3137 3138 3138 3138 3138 3138 3138 3138 3138 3138 3138 3138 3138 3138 3138 3138 3138 3138 3138 3138 3138 3137 3137 3137 3137 3137 3137 3136 3136 3136 3135 3135 3134 3133 3133 3132 3132 3131 3130 3129 3128 3128 3127 3127 3126 3125 3124 3123 3123 3122 3122 3121 3120 3119 3118 3118 3117 3116 3115 3114 3113 3113 3111 3110 3109 3108 3107 3106 3104 3103 3102 3100 3098 3097 3096 3094 3093 3092 3091 3089 3088 3087 3085 3084 3082 3080 3079 3077 3075 3074 3072 3070 3068 3066 3064 3062 3060 3058 3056 3054 3052 3049 3047
3137 3137 3137 3137 3137 3137 3137 3137 3137 3138 3138 3138 3138 3138 3138 3138 3138 3138 3137 3137 3137 3137 3137 3136 3136 3136 3136 3136 3135 3135 3135 3134 3133 3133 3132 3131 3131 3130 3129 3128 3128 3127 3126 3126 3125 3124 3123 3123 3122 3121 3121 3120 3119 3118 3117 3117 3116 3115 3114 3113 3113 3112 3111 3110 3108 3108 3106 3105 3103 3102 3101 3099 3098 3096 3095 3093 3092 3091 3090 3088 3087 3086 3084 3082 3081 3079 3078 3076 3074 3072 3070 3068 3067 3065 3063 3061 3058 3056 3054 3052 3050 3047 3045
3136 3136 3136 3136 3136 3136 3136 3137 3137 3137 3137 3137 3137 3137 3137 3137 3137 3137 3137 3136 3136 3136 3136 3136 3136 3135 3135 3135 3134 3134 3134 3133 3133 3132 3131 3131 3130 3129 3128 3128 3127 3126 3126 3125 3124 3123 3123 3122 3121 3120 3120 3119 3118 3117 3117 3116 3115 3114 3114 3113 3112 3111 3110 3109 3108 3107 3105 3104 3103 3101 3100 3098 3097 3095 3094 3093 3091 3090 3088 3087 3086 3084 3083 3081 3079 3078 3076 3074 3073 3071 3069 3067 3065 3063 3061 3059 3057 3055 3052 3050 3048 3045 3043
3135 3135 3135 3135 3135 3136 3136 3136 3136 3136 3136 3136 3136 3136 3136 3136 3136 3136 3136 3136 3135 3135 3135 3135 3135 3135 3134 3134 3134 3133 3133 3133 3132 3131 3130 3130 3129 3128 3128 3127 3126 3125 3124 3124 3123 3122 3122 3121 3120 3119 3119 3118 3117 3117 3116 3115 3114 3114 3113 3112 3111 3110 3109 3108 3107 3106 3104 3103 3102 3100 3099 3097 3096 3094 3093 3091 3090 3089 3087 3086 3084 3083 3081 3080 3078 3076 3075 3073 3071 3069 3067 3065 3063 3061 3059 3057 3055 3053 3051 3048 3046 3043 3041
3134 3134 3134 3135 3135 3135 3135 3135 3135 3135 3135 3136 3136 3135 3135 3135 3135 3135 3135 3135 3135 3134 3134 3134 3134 3134 3134 3133 3133 3133 3132 3132 3131 3130 3130 3129 3128 3128 3127 3126 3125 3124 3123 3123 3122 3121 3120 3120 3119 3118 3118 3117 3117 3116 3115 3114 3113 3113 3112 3111 3110 3109 3108 3107 3106 3105 3103 3102 3101 3099 3098 3096 3095 3093 3092 3090 3089 3088 3086 3084 3083 3081 3080 3078 3077 3075 3073 3071 3069 3068 3066 3063 3061 3059 3057 3055 3053 3051 3048 3046 3044 3042 3039
3133 3133 3133 3134 3134 3134 3134 3134 3134 3134 3135 3135 3135 3135 3135 3134 3134 3134 3134 3134 3134 3134 3133 3133 3133 3133 3133 3133 3132 3132 3131 3131 3130 3129 3129 3128 3128 3127 3126 3125 3125 3124 3123 3122 3121 3120 3119 3118 3118 3117 3117 3116 3116 3115 3114 3113 3113 3112 3111 3110 3109 3108 3107 3106 3105 3103 3102 3101 3099 3098 3097 3095 3094 3092 3091 3089 3088 3086 3085 3083 3082 3080 3078 3077 3075 3073 3071 3069 3068 3066 3064 3062 3060 3058 3055 3053 3051 3049 3047 3044 3042 3039 3037
3132 3133 3133 3133 3133 3133 3133 3133 3133 3133 3134 3134 3134 3134 3134 3134 3133 3133 3133 3133 3133 3133 3133 3133 3132 3132 3132 3132 3132 3131 3130 3130 3129 3129 3128 3128 3127 3126 3125 3125 3124 3123 3123 3122 3121 3120 3119 3118 3117 3116 3116 3115 3114 3114 3113 3112 3112 3111 3110 3109 3108 3107 3106 3105 3103 3102 3101 3099 3098 3097 3095 3094 3093 3091 3089 3088 3086 3085 3083 3082 3080 3078 3077 3075 3073 3072 3070 3068 3066 3064 3062 3060 3058 3056 3054 3052 3049 3047 3045 3042 3040 3038 3035
3132 3132 3132 3132 3132 3133 3133 3133 3133 3133 3133 3133 3133 3133 3133 3133 3133 3133 3132 3132 3132 3132 3132 3132 3131 3131 3131 3131 3131 3130 3130 3129 3129 3128 3128 3127 3126 3125 3124 3124 3123 3123 3122 3121 3120 3119 3118 3118 3116 3116 3115 3114 3113 3113 3112 3111 3110 3109 3108 3108 3107 3106 3105 3103 3102 3101 3100 3098 3097 3096 3094 3093 3091 3090 3088 3087 3085 3083 3082 3080 3078 3077 3075 3073 3072 3070 3068 3066 3064 3062 3060 3058 3056 3054 3052 3050 3048 3045 3043 3040 3038 3035 3033
3131 3131 3131 3132 3132 3132 3132 3132 3132 3132 3132 3132 3133 3133 3133 3132 3132 3132 3132 3131 3131 3131 3131 3131 3130 3130 3130 3130 3130 3130 3129 3128 3128 3128 3127 3126 3125 3125 3124 3123 3122 3121 3121 3120 3119 3118 3118 3117 3116 3115 3114 3113 3112 3111 3110 3109 3109 3108 3107 3107 3106 3104 3103 3102 3101 3100 3098 3097 3096 3094 3093 3092 3090 3088 3087 3085 3084 3082 3080 3079 3077 3075 3074 3072 3070 3068 3066 3064 3063 3061 3059 3057 3055 3053 3050 3048 3046 3043 3041 3038 3036 3033 3031
3130 3130 3131 3131 3131 3131 3131 3131 3131 3131 3131 3131 3132 3132 3132 3132 3132 3131 3131 3131 3131 3130 3130 3130 3129 3129 3129 3129 3129 3129 3128 3128 3127 3127 3126 3125 3124 3124 3123 3122 3121 3120 3119 3119 3118 3118 3117 3116 3115 3114 3113 3112 3111 3110 3109 3108 3108 3107 3106 3105 3104 3103 3102 3101 3100 3098 3097 3096 3094 3093 3092 3090 3089 3087 3086 3084 3082 3081 3079 3077 3076 3074 3072 3070 3068 3067 3065 3063 3061 3059 3057 3055 3053 3051 3048 3046 3044 3041 3039 3036 3034 3031 3029
3129 3130 3130 3130 3130 3130 3130 3130 3130 3130 3130 3130 3130 3131 3131 3131 3131 3131 3130 3130 3130 3130 3129 3129 3128 3128 3128 3128 3128 3128 3128 3127 3126 3126 3125 3124 3123 3123 3122 3121 3120 3120 3119 3118 3117 3117 3116 3115 3114 3113 3112 3111 3110 3109 3108 3107 3106 3105 3105 3104 3103 3102 3101 3099 3098 3097 3096 3094 3093 3092 3090 3089 3087 3086 3084 3083 3081 3079 3078 3076 3074 3072 3070 3068 3067 3065 3063 3061 3059 3058 3055 3053 3051 3049 3047 3044 3042 3039 3037 3034 3032 3029 3027
3128 3129 3129 3129 3129 3129 3129 3129 3129 3129 3129 3129 3129 3130 3130 3130 3130 3130 3129 3129 3129 3129 3128 3128 3128 3127 3127 3127 3127 3126 3126 3126 3125 3125 3124 3123 3123 3122 3121 3120 3119 3118 3118 3117 3116 3116 3115 3114 3113 3112 3111 3110 3109 3108 3107 3106 3105 3104 3103 3102 3102 3100 3099 3098 3097 3096 3094 3093 3092 3090 3089 3088 3086 3084 3083 3081 3079 3078 3076 3074 3072 3071 3069 3067 3065 3063 3062 3060 3058 3056 3053 3051 3049 3047 3045 3042 3040 3038 3035 3033 3030 3028 3025
3128 3128 3128 3128 3128 3128 3128 3128 3128 3128 3128 3128 3128 3128 3129 3129 3128 3128 3128 3128 3128 3128 3128 3128 3127 3126 3126 3126 3125 3125 3125 3125 3124 3123 3123 3122 3121 3120 3119 3118 3118 3117 3116 3115 3115 3114 3113 3113 3112 3111 3110 3109 3108 3107 3106 3105 3103 3102 3101 3101 3100 3099 3098 3096 3095 3094 3093 3092 3091 3089 3088 3086 3085 3083 3081 3080 3078 3076 3074 3073 3071 3069 3067 3066 3064 3062 3060 3058 3056 3054 3052 3050 3047 3045 3043 3041 3038 3036 3033 3031 3028 3025 3023
3127 3127 3127 3128 3128 3128 3128 3128 3128 3128 3128 3128 3128 3128 3128 3128 3128 3128 3127 3127 3127 3127 3127 3127 3126 3125 3125 3124 3124 3124 3124 3123 3123 3123 3122 3121 3120 3119 3118 3118 3117 3116 3115 3114 3113 3113 3112 3112 3111 3110 3109 3108 3108 3107 3106 3104 3103 3101 3100 3099 3098 3097 3096 3095 3093 3093 3091 3090 3089 3088 3087 3085 3083 3082 3080 3078 3077 3075 3073 3072 3070 3068 3066 3064 3063 3061 3059 3057 3055 3053 3050 3048 3046 3043 3041 3039 3036 3034 3031 3029 3026 3023 3021
3126 3126 3126 3127 3127 3127 3127 3127 3127 3127 3127 3127 3127 3126 3126 3126 3126 3126 3126 3126 3126 3126 3126 3125 3125 3124 3124 3123 3123 3123 3123 3122 3122 3121 3121 3120 3119 3118 3117 3116 3116 3115 3114 3113 3113 3112 3111 3110 3110 3109 3108 3108 3107 3106 3105 3104 3102 3100 3099 3098 3097 3096 3094 3093 3092 3091 3090 3089 3088 3087 3085 3084 3082 3081 3079 3077 3076 3074 3072 3070 3068 3067 3065 3063 3061 3059 3057 3055 3053 3051 3048 3046 3044 3042 3039 3037 3034 3032 3029 3027 3024 3021 3018